CW7986 Weather Reports


Display with metric or nautical units.
time (UTC)temp
F
wind
direction
speed
MPH
gust
MPH
rain 1hr
in
rain 24hr
in
rain mn
in
humidity
%
barometer
mb
20260905073525 80 121 0.0 2.0 0.00 0.11 0.00 86 1012.3
20260905073004 80 0 0.0 0.0 0.00 0.11 0.00 86 1012.3
20260905072504 80 0 0.0 0.0 0.00 0.11 0.00 86 1012.2
20260905072024 80 0 0.0 0.0 0.00 0.11 0.00 86 1012.3
20260905071504 80 121 0.0 2.0 0.00 0.11 0.00 86 1012.3
20260905071025 80 121 0.0 2.0 0.00 0.11 0.00 86 1012.4
20260905070504 80 120 1.0 3.0 0.00 0.11 0.00 86 1012.3
20260905070004 80 119 0.0 3.0 0.00 0.11 0.00 86 1012.4
20260905065505 80 0 0.0 0.0 0.00 0.11 0.00 86 1012.5
20260905065004 80 0 0.0 0.0 0.00 0.11 0.00 86 1012.6
20260905064525 80 109 0.0 2.0 0.00 0.11 0.00 86 1012.5
20260905064004 80 109 0.0 2.0 0.00 0.11 0.00 86 1012.6
20260905063503 80 110 0.0 2.0 0.00 0.11 0.00 86 1012.7
20260905063003 81 101 1.0 3.0 0.00 0.11 0.00 86 1012.7
20260905062504 81 93 1.0 3.0 0.00 0.11 0.00 86 1012.7
20260905062004 81 88 0.0 2.0 0.00 0.11 0.00 86 1012.7
20260905061504 81 96 0.0 4.0 0.00 0.11 0.00 86 1012.7
20260905061003 81 106 1.0 4.0 0.00 0.11 0.00 86 1012.8
20260905060503 81 105 1.0 3.0 0.00 0.11 0.00 85 1012.8
20260905060004 81 100 0.0 2.0 0.00 0.11 0.00 85 1012.8
20260905055504 82 108 0.0 2.0 0.00 0.11 0.00 85 1012.8
20260905055004 82 90 1.0 3.0 0.00 0.11 0.00 85 1012.9
20260905054504 82 74 0.0 3.0 0.00 0.11 0.00 85 1013.0
20260905054003 82 74 0.0 2.0 0.00 0.11 0.00 85 1013.1
20260905053503 82 78 0.0 2.0 0.00 0.11 0.00 85 1013.0
20260905053004 82 89 0.0 3.0 0.00 0.11 0.00 85 1013.0
20260905052504 82 80 0.0 3.0 0.00 0.11 0.00 85 1013.2
20260905052025 82 65 0.0 2.0 0.00 0.11 0.00 84 1013.2
20260905051503 82 65 0.0 2.0 0.00 0.11 0.00 84 1013.2
20260905051004 82 65 0.0 2.0 0.00 0.11 0.00 84 1013.2
20260905050503 83 0 0.0 0.0 0.00 0.11 0.00 84 1013.3
20260905050004 83 0 0.0 0.0 0.00 0.11 0.00 84 1013.3
20260905045504 83 0 0.0 0.0 0.00 0.11 0.00 84 1013.3
20260905045004 83 277 0.0 1.0 0.00 0.11 0.00 83 1013.4
20260905044504 83 277 0.0 1.0 0.00 0.11 0.00 83 1013.4
20260905044025 83 277 0.0 1.0 0.00 0.11 0.00 83 1013.4
20260905043525 83 277 0.0 1.0 0.00 0.11 0.00 83 1013.4
20260905043003 83 277 0.0 1.0 0.00 0.11 0.00 82 1013.5
20260905042524 83 0 0.0 0.0 0.00 0.11 0.00 82 1013.5
20260905042004 83 277 0.0 1.0 0.00 0.11 0.00 82 1013.4
20260905041504 83 277 0.0 1.0 0.00 0.11 0.00 81 1013.4
20260905041004 83 277 0.0 1.0 0.00 0.11 0.00 81 1013.3
20260905040525 83 277 0.0 1.0 0.00 0.11 0.00 81 1013.3
20260905040004 83 0 0.0 0.0 0.00 0.11 0.00 81 1013.3
20260905035504 83 0 0.0 0.0 0.00 0.11 0.11 81 1013.3
20260905035004 83 0 0.0 0.0 0.00 0.11 0.11 81 1013.3
20260905034526 83 0 0.0 0.0 0.00 0.11 0.11 81 1013.3
20260905034003 84 0 0.0 0.0 0.00 0.11 0.11 80 1013.4
20260905033503 84 0 0.0 0.0 0.00 0.11 0.11 80 1013.5
20260905033004 84 0 0.0 0.0 0.00 0.11 0.11 80 1013.6
20260905032504 84 0 0.0 0.0 0.00 0.11 0.11 80 1013.6
20260905032003 84 0 0.0 0.0 0.00 0.11 0.11 80 1013.6
20260905031525 84 0 0.0 0.0 0.00 0.11 0.11 80 1013.7
20260905031024 84 0 0.0 0.0 0.00 0.11 0.11 80 1013.8
20260905030503 84 0 0.0 0.0 0.00 0.11 0.11 79 1013.9
20260905030004 84 0 0.0 0.0 0.00 0.11 0.11 79 1013.9
20260905025504 84 0 0.0 0.0 0.00 0.11 0.11 79 1013.9
20260905025004 84 0 0.0 0.0 0.00 0.11 0.11 78 1013.8
20260905024505 84 0 0.0 0.0 0.00 0.11 0.11 78 1013.8
20260905024003 84 0 0.0 0.0 0.00 0.11 0.11 78 1013.9
20260905023503 84 0 0.0 0.0 0.00 0.11 0.11 78 1014.1
20260905023024 84 0 0.0 0.0 0.00 0.11 0.11 78 1014.1
20260905022504 84 0 0.0 0.0 0.00 0.11 0.11 77 1013.9
20260905022003 84 0 0.0 0.0 0.00 0.11 0.11 77 1013.8
20260905021504 84 0 0.0 0.0 0.00 0.11 0.11 77 1013.8
20260905021003 85 0 0.0 0.0 0.00 0.11 0.11 77 1013.8
20260905020525 85 0 0.0 0.0 0.00 0.11 0.11 77 1013.9
20260905020004 85 0 0.0 0.0 0.00 0.11 0.11 76 1013.7
20260905015503 85 0 0.0 0.0 0.00 0.11 0.11 76 1013.8
20260905015004 85 0 0.0 0.0 0.00 0.11 0.11 76 1013.9
20260905014503 85 0 0.0 0.0 0.00 0.11 0.11 76 1013.8
20260905014004 85 0 0.0 0.0 0.00 0.11 0.11 76 1013.8
20260905013504 85 0 0.0 0.0 0.00 0.11 0.11 75 1013.7
20260905013025 86 0 0.0 0.0 0.00 0.11 0.11 75 1013.7
20260905012504 86 0 0.0 0.0 0.00 0.11 0.11 75 1013.7
20260905012031 86 0 0.0 0.0 0.00 0.11 0.11 75 1013.8
20260905011504 86 0 0.0 0.0 0.00 0.11 0.11 75 1013.7
20260905011004 86 277 0.0 1.0 0.00 0.11 0.11 75 1013.7
20260905010524 86 277 0.0 1.0 0.00 0.11 0.11 75 1013.7
20260905010004 86 277 0.0 1.0 0.00 0.11 0.11 75 1013.7
20260905005503 86 277 0.0 2.0 0.00 0.11 0.11 75 1013.7
20260905005004 86 273 1.0 4.0 0.00 0.11 0.11 75 1013.6
20260905004525 86 276 2.0 5.0 0.00 0.11 0.11 75 1013.6
20260905004003 86 279 3.0 6.0 0.00 0.11 0.11 75 1013.5
20260905003503 86 286 2.0 6.0 0.00 0.11 0.11 75 1013.4
20260905003004 86 292 2.0 3.0 0.00 0.11 0.11 75 1013.3
20260905002503 86 280 2.0 4.0 0.00 0.11 0.11 75 1013.3
20260905002003 86 283 2.0 4.0 0.00 0.11 0.11 74 1013.2
20260905001504 87 294 2.0 5.0 0.00 0.11 0.11 75 1013.3
20260905001004 87 284 3.0 6.0 0.00 0.11 0.11 74 1013.3
20260905000503 87 276 4.0 6.0 0.00 0.11 0.11 74 1013.2
20260905000004 87 276 2.0 6.0 0.00 0.11 0.11 74 1013.1
20260904235503 87 275 2.0 5.0 0.00 0.11 0.11 73 1013.0
20260904235004 87 273 3.0 5.0 0.00 0.11 0.11 73 1012.9
20260904234503 87 270 3.0 6.0 0.00 0.11 0.11 73 1012.9
20260904234004 88 269 2.0 6.0 0.00 0.11 0.11 72 1012.8
20260904233503 88 273 1.0 5.0 0.00 0.11 0.11 72 1012.8
20260904233004 88 270 2.0 5.0 0.00 0.11 0.11 72 1012.8
20260904232524 88 271 2.0 5.0 0.00 0.11 0.11 72 1012.7
20260904232004 88 271 3.0 6.0 0.00 0.11 0.11 72 1012.7
20260904231504 88 272 3.0 6.0 0.00 0.11 0.11 72 1012.7
20260904231024 88 270 2.0 6.0 0.00 0.11 0.11 71 1012.7
20260904230504 88 268 2.0 6.0 0.00 0.11 0.11 71 1012.7
20260904230004 89 271 3.0 10.0 0.00 0.11 0.11 70 1012.7
20260904225503 89 271 3.0 10.0 0.00 0.11 0.11 69 1012.6
20260904225024 89 270 2.0 6.0 0.00 0.11 0.11 69 1012.6
20260904224503 89 262 2.0 6.0 0.00 0.11 0.11 70 1012.7
20260904224004 89 267 2.0 7.0 0.00 0.11 0.11 71 1012.7
20260904223504 89 277 3.0 7.0 0.00 0.11 0.11 71 1012.7
20260904223003 89 272 3.0 7.0 0.00 0.11 0.11 72 1012.7
20260904222504 89 263 2.0 7.0 0.00 0.11 0.11 72 1012.7
20260904222003 89 265 3.0 7.0 0.00 0.11 0.11 72 1012.5
20260904221504 89 269 2.0 10.0 0.00 0.11 0.11 73 1012.5
20260904221003 89 260 1.0 10.0 0.00 0.11 0.11 71 1012.5
20260904220503 90 242 2.0 7.0 0.00 0.11 0.11 71 1012.5
20260904220004 90 262 2.0 7.0 0.00 0.11 0.11 71 1012.5
20260904215503 90 261 2.0 7.0 0.00 0.11 0.11 70 1012.4
20260904215004 91 269 3.0 8.0 0.00 0.11 0.11 70 1012.6
20260904214504 90 270 3.0 8.0 0.00 0.11 0.11 70 1012.5
20260904214025 91 260 2.0 5.0 0.00 0.11 0.11 69 1012.6
20260904213503 91 261 2.0 7.0 0.00 0.11 0.11 70 1012.6
20260904213004 91 260 2.0 7.0 0.00 0.11 0.11 70 1012.6
20260904212504 91 252 3.0 10.0 0.00 0.11 0.11 69 1012.5
20260904212003 91 267 4.0 10.0 0.00 0.11 0.11 70 1012.5
20260904211504 90 272 3.0 10.0 0.00 0.11 0.11 69 1012.5
20260904211004 92 272 2.0 7.0 0.00 0.11 0.11 69 1012.4
20260904210503 91 263 3.0 9.0 0.00 0.11 0.11 71 1012.4
20260904210004 92 264 3.0 11.0 0.00 0.11 0.11 70 1012.3
20260904205503 91 270 3.0 11.0 0.00 0.11 0.11 68 1012.3
20260904205025 92 271 3.0 9.0 0.00 0.11 0.11 70 1012.2
20260904204504 91 271 4.0 10.0 0.00 0.11 0.11 69 1012.2
20260904204004 92 267 3.0 10.0 0.00 0.11 0.11 66 1012.3
20260904203503 92 266 3.0 7.0 0.00 0.11 0.11 69 1012.5
20260904203004 92 265 2.0 7.0 0.00 0.11 0.11 68 1012.7
20260904202504 92 259 2.0 6.0 0.00 0.11 0.11 70 1012.7
20260904202004 92 264 3.0 7.0 0.00 0.11 0.11 69 1012.7
20260904201503 91 264 4.0 7.0 0.00 0.11 0.11 69 1012.7
20260904201004 92 266 3.0 11.0 0.00 0.11 0.11 70 1012.7
20260904200503 92 270 3.0 11.0 0.00 0.11 0.11 68 1012.8
20260904200004 92 265 3.0 10.0 0.00 0.11 0.11 69 1012.8
20260904195504 92 266 4.0 11.0 0.00 0.11 0.11 68 1012.9
20260904195003 92 265 4.0 11.0 0.00 0.11 0.11 69 1012.9
20260904194503 92 268 5.0 11.0 0.00 0.11 0.11 66 1013.0
20260904194024 91 271 5.0 13.0 0.00 0.11 0.11 67 1012.9
20260904193504 91 271 4.0 13.0 0.00 0.11 0.11 68 1013.0
20260904193005 92 270 3.0 9.0 0.00 0.11 0.11 67 1013.0
20260904192504 93 273 3.0 10.0 0.00 0.11 0.11 67 1013.2
20260904192004 92 270 3.0 10.0 0.00 0.11 0.11 68 1013.2
20260904191503 92 254 2.0 12.0 0.00 0.11 0.11 68 1013.2
20260904191004 92 254 3.0 12.0 0.00 0.11 0.11 68 1013.2
20260904190504 92 260 3.0 9.0 0.00 0.11 0.11 68 1013.3
20260904190004 92 263 3.0 11.0 0.00 0.11 0.11 65 1013.4
20260904185504 92 261 4.0 12.0 0.00 0.11 0.11 67 1013.5
20260904185004 92 263 3.0 12.0 0.00 0.11 0.11 67 1013.5
20260904184503 93 268 3.0 9.0 0.00 0.11 0.11 69 1013.7
20260904184005 92 258 3.0 8.0 0.00 0.11 0.11 69 1013.7
20260904183504 93 239 2.0 5.0 0.00 0.11 0.11 68 1013.7
20260904183004 93 238 2.0 6.0 0.00 0.11 0.11 67 1013.8
20260904182504 93 253 3.0 9.0 0.00 0.11 0.11 67 1013.8
20260904182003 92 262 3.0 9.0 0.00 0.11 0.11 67 1013.8
20260904181504 92 259 3.0 9.0 0.00 0.11 0.11 69 1013.8
20260904181024 92 263 3.0 9.0 0.00 0.11 0.11 68 1014.0
20260904180504 92 263 3.0 9.0 0.00 0.11 0.11 68 1014.0
20260904180004 92 240 1.0 5.0 0.00 0.11 0.11 66 1014.1
20260904175524 93 244 1.0 4.0 0.00 0.11 0.11 68 1014.0
20260904175026 91 260 2.0 7.0 0.00 0.11 0.11 70 1014.1
20260904174504 91 262 3.0 11.0 0.00 0.11 0.11 70 1014.2
20260904174004 90 269 3.0 11.0 0.00 0.11 0.11 69 1014.3
20260904173525 90 269 4.0 9.0 0.00 0.11 0.11 71 1014.3
20260904173004 89 265 3.0 9.0 0.00 0.11 0.11 71 1014.3
20260904172504 90 263 2.0 6.0 0.00 0.11 0.11 71 1014.2
20260904172004 90 266 2.0 6.0 0.00 0.11 0.11 70 1014.3
20260904171504 90 262 2.0 6.0 0.00 0.11 0.11 68 1014.3
20260904171003 91 249 1.0 6.0 0.00 0.11 0.11 68 1014.5
20260904170525 91 244 2.0 9.0 0.00 0.11 0.11 68 1014.6
20260904170003 92 241 3.0 9.0 0.00 0.11 0.11 67 1014.6
20260904165503 93 237 2.0 7.0 0.00 0.11 0.11 65 1014.5
20260904165004 92 244 2.0 7.0 0.00 0.11 0.11 69 1014.4
20260904164506 92 223 2.0 7.0 0.00 0.11 0.11 68 1014.5
20260904164004 93 201 2.0 7.0 0.00 0.11 0.11 69 1014.6
20260904163504 92 199 2.0 7.0 0.00 0.12 0.11 70 1014.7
20260904163004 91 249 3.0 7.0 0.00 0.12 0.11 70 1014.8
20260904162504 90 268 3.0 10.0 0.00 0.14 0.11 73 1014.8
20260904162004 90 271 2.0 10.0 0.00 0.18 0.11 70 1014.8
20260904161504 91 269 2.0 11.0 0.00 0.42 0.11 70 1014.8
20260904161004 91 251 3.0 11.0 0.00 0.68 0.11 71 1014.8
20260904160504 93 233 2.0 6.0 0.00 0.76 0.11 66 1014.8
20260904160004 92 264 2.0 5.0 0.00 0.76 0.11 72 1014.8
20260904155504 91 257 2.0 5.0 0.00 0.76 0.11 71 1014.9
20260904155004 92 242 2.0 7.0 0.00 0.76 0.11 71 1014.9
20260904154504 91 259 2.0 7.0 0.00 0.76 0.11 70 1014.9
20260904154004 91 221 3.0 9.0 0.00 0.76 0.11 70 1014.9
20260904153505 92 189 2.0 9.0 0.00 0.76 0.11 67 1014.9
20260904153004 92 188 2.0 8.0 0.00 0.76 0.11 67 1014.8
20260904152504 92 206 2.0 8.0 0.00 0.76 0.11 68 1014.8
20260904152004 90 257 2.0 6.0 0.00 0.76 0.11 70 1014.8
20260904151504 90 268 2.0 7.0 0.00 0.76 0.11 73 1014.8
20260904151004 90 274 2.0 7.0 0.00 0.76 0.11 73 1014.8
20260904150504 90 192 3.0 7.0 0.00 0.76 0.11 73 1014.7
20260904150004 90 169 3.0 7.0 0.00 0.76 0.11 69 1014.7
20260904145504 91 162 2.0 6.0 0.00 0.76 0.11 69 1014.5
20260904145004 91 155 3.0 5.0 0.00 0.76 0.11 71 1014.4
20260904144525 90 164 4.0 7.0 0.00 0.76 0.11 72 1014.5
20260904144025 90 164 3.0 7.0 0.00 0.76 0.11 72 1014.4
20260904143506 89 145 4.0 7.0 0.00 0.76 0.11 75 1014.3
20260904143004 89 149 4.0 9.0 0.00 0.76 0.11 75 1014.3
20260904142504 88 152 3.0 9.0 0.00 0.76 0.11 77 1014.3
20260904142004 88 148 3.0 7.0 0.00 0.76 0.11 77 1014.3
20260904141504 88 148 2.0 7.0 0.00 0.76 0.11 78 1014.3
20260904141004 88 146 2.0 4.0 0.00 0.76 0.11 79 1014.3
20260904140503 86 134 2.0 4.0 0.00 0.76 0.11 81 1014.3
20260904140004 85 130 2.0 4.0 0.00 0.76 0.11 82 1014.3
20260904135504 85 134 2.0 4.0 0.00 0.76 0.11 82 1014.2
20260904135004 84 133 2.0 4.0 0.00 0.76 0.11 82 1014.2
20260904134504 84 141 2.0 5.0 0.00 0.76 0.11 80 1014.2
20260904134004 85 141 3.0 5.0 0.00 0.76 0.11 78 1014.2
20260904133503 85 135 2.0 5.0 0.00 0.76 0.11 79 1014.2
20260904133004 84 136 2.0 5.0 0.00 0.76 0.11 79 1014.2
20260904132504 85 140 2.0 5.0 0.00 0.76 0.11 78 1014.1
20260904132004 85 137 2.0 5.0 0.00 0.76 0.11 80 1014.1
20260904131504 84 142 2.0 5.0 0.01 0.76 0.11 79 1013.9
20260904131025 84 145 2.0 5.0 0.01 0.76 0.11 80 1013.8
20260904130504 83 142 1.0 4.0 0.01 0.76 0.11 83 1013.7
20260904130004 83 137 1.0 3.0 0.03 0.76 0.11 85 1013.7
20260904125504 82 136 1.0 3.0 0.03 0.76 0.11 87 1013.6
20260904125004 81 136 1.0 3.0 0.03 0.76 0.11 88 1013.7
20260904124504 81 136 0.0 3.0 0.03 0.76 0.11 89 1013.7
20260904124004 80 147 1.0 4.0 0.03 0.76 0.11 90 1013.7
20260904123525 80 144 2.0 5.0 0.03 0.76 0.11 90 1013.7
20260904123004 80 134 2.0 5.0 0.03 0.76 0.11 90 1013.7
20260904122504 80 129 2.0 7.0 0.03 0.76 0.11 90 1013.7
20260904122003 80 135 2.0 7.0 0.03 0.76 0.11 90 1013.7
20260904121504 80 130 1.0 3.0 0.02 0.75 0.10 90 1013.7
20260904121004 80 134 2.0 4.0 0.02 0.75 0.10 90 1013.7
20260904120504 80 137 2.0 4.0 0.02 0.75 0.10 90 1013.7
20260904120025 80 130 1.0 3.0 0.00 0.73 0.08 90 1013.7
20260904115504 80 111 1.0 4.0 0.00 0.73 0.08 90 1013.6
20260904115004 80 92 1.0 4.0 0.00 0.73 0.08 90 1013.5
20260904114504 80 97 0.0 3.0 0.01 0.73 0.08 90 1013.4
20260904114004 79 101 0.0 3.0 0.01 0.73 0.08 90 1013.3
20260904113504 79 0 0.0 0.0 0.01 0.73 0.08 90 1013.2
20260904113004 79 0 0.0 0.0 0.01 0.73 0.08 90 1013.2
20260904112503 79 0 0.0 0.0 0.01 0.73 0.08 90 1013.1
20260904112003 79 138 0.0 1.0 0.01 0.73 0.08 90 1013.1
20260904111503 79 148 0.0 2.0 0.01 0.73 0.08 90 1013.0
20260904111004 79 155 1.0 2.0 0.01 0.73 0.08 89 1013.1
20260904110503 79 159 1.0 5.0 0.02 0.73 0.08 89 1013.2
20260904110004 79 142 2.0 5.0 0.03 0.73 0.08 89 1013.1
20260904105504 79 118 1.0 4.0 0.06 0.73 0.08 89 1013.2
20260904105004 79 129 1.0 4.0 0.08 0.73 0.08 89 1013.1
20260904104504 79 286 1.0 3.0 0.07 0.72 0.07 89 1013.1
20260904104010 79 294 1.0 3.0 0.07 0.72 0.07 89 1013.0
20260904103504 79 294 0.0 2.0 0.07 0.72 0.07 89 1012.9
20260904103004 79 294 0.0 2.0 0.07 0.72 0.07 89 1012.7
20260904102504 79 294 0.0 2.0 0.07 0.72 0.07 89 1012.8
20260904102004 79 294 0.0 1.0 0.07 0.72 0.07 89 1012.7
20260904101503 79 294 0.0 1.0 0.07 0.72 0.07 89 1012.5
20260904101004 79 289 1.0 4.0 0.07 0.72 0.07 89 1012.5
20260904100504 79 287 2.0 4.0 0.06 0.71 0.07 89 1012.6
20260904100004 79 284 1.0 4.0 0.05 0.70 0.05 89 1012.7
20260904095504 79 283 1.0 4.0 0.02 0.67 0.02 89 1012.6
20260904095004 79 0 0.0 0.0 0.00 0.65 0.00 89 1012.6
20260904094504 79 0 0.0 0.0 0.00 0.65 0.00 89 1012.5
20260904094004 78 0 0.0 0.0 0.00 0.65 0.00 89 1012.4
20260904093526 78 0 0.0 0.0 0.00 0.65 0.00 89 1012.3
20260904093004 78 0 0.0 0.0 0.00 0.65 0.00 89 1012.2
20260904092504 78 0 0.0 0.0 0.00 0.65 0.00 89 1012.2
20260904092004 78 0 0.0 0.0 0.00 0.65 0.00 89 1012.1
20260904091524 78 0 0.0 0.0 0.00 0.65 0.00 89 1012.1
20260904091025 78 0 0.0 0.0 0.00 0.65 0.00 89 1011.9
20260904090503 78 0 0.0 0.0 0.00 0.65 0.00 89 1012.0
20260904090004 78 0 0.0 0.0 0.00 0.65 0.00 89 1012.0
20260904085503 78 0 0.0 0.0 0.00 0.65 0.00 89 1012.1
20260904085004 78 0 0.0 0.0 0.00 0.65 0.00 89 1012.2
20260904084503 78 0 0.0 0.0 0.00 0.65 0.00 89 1012.2
20260904084003 78 0 0.0 0.0 0.00 0.65 0.00 88 1012.2
20260904083504 78 0 0.0 0.0 0.00 0.65 0.00 88 1012.1
20260904083004 78 0 0.0 0.0 0.00 0.65 0.00 88 1012.2
20260904082503 78 0 0.0 0.0 0.00 0.65 0.00 88 1012.2
20260904082004 78 96 0.0 1.0 0.00 0.65 0.00 88 1012.2
20260904081503 78 95 1.0 2.0 0.00 0.65 0.00 88 1012.1
20260904081004 79 95 1.0 2.0 0.00 0.65 0.00 88 1012.1
20260904080525 78 95 0.0 2.0 0.00 0.65 0.00 88 1012.2
20260904080004 78 95 0.0 3.0 0.00 0.65 0.00 88 1012.2
20260904075504 78 95 0.0 3.0 0.00 0.65 0.00 88 1012.1
20260904075003 79 93 0.0 2.0 0.00 0.65 0.00 88 1012.0
20260904074524 78 0 0.0 0.0 0.00 0.65 0.00 88 1012.0
20260904074025 78 96 0.0 3.0 0.00 0.65 0.00 88 1012.1